This is the latest recevied weather packets stored in our database for station/object F4DVI. If no packets are shown the sender has not sent any weather packets the latest 10 day(s).
| Time | Temp. | Humidity | Pressure | Rain* | Wind** | Luminosity | Snow |
|---|---|---|---|---|---|---|---|
| 1778085210 | 17.22° C | 55% | 0 hPa | 0 mm | - | - | - |
| 1778084910 | 17.78° C | 53% | 0 hPa | 0 mm | - | - | - |
| 1778084610 | 17.78° C | 53% | 0 hPa | 0 mm | - | - | - |
| 1778084310 | 17.78° C | 52% | 0 hPa | 0 mm | - | - | - |
| 1778084010 | 17.78° C | 54% | 0 hPa | 0 mm | - | - | - |
| 1778083710 | 17.22° C | 55% | 0 hPa | 0 mm | - | - | - |
| 1778083411 | 17.22° C | 52% | 0 hPa | 0 mm | - | - | - |
| 1778083111 | 17.22° C | 52% | 0 hPa | 0 mm | - | - | - |
| 1778082810 | 17.78° C | 53% | 0 hPa | 0 mm | - | - | - |
| 1778082511 | 18.33° C | 52% | 0 hPa | 0 mm | - | - | - |
| 1778082211 | 17.22° C | 53% | 0 hPa | 0 mm | - | - | - |
| 1778081910 | 18.33° C | 52% | 0 hPa | 0 mm | - | - | - |
| 1778081610 | 18.33° C | 51% | 0 hPa | 0 mm | - | - | - |
| 1778081310 | 18.89° C | 51% | 0 hPa | 0 mm | - | - | - |
| 1778081011 | 19.44° C | 52% | 0 hPa | 0 mm | - | - | - |
| 1778080710 | 19.44° C | 52% | 0 hPa | 0 mm | - | - | - |
| 1778080411 | 19.44° C | 51% | 0 hPa | 0 mm | - | - | - |
| 1778080111 | 18.89° C | 51% | 0 hPa | 0 mm | - | - | - |
| 1778079811 | 19.44° C | 50% | 0 hPa | 0 mm | - | - | - |
| 1778079511 | 20° C | 52% | 0 hPa | 0 mm | - | - | - |
| 1778079211 | 20.56° C | 51% | 0 hPa | 0 mm | - | - | - |
| 1778078911 | 20.56° C | 55% | 0 hPa | 0 mm | - | - | - |
| 1778078611 | 20.56° C | 55% | 0 hPa | 0 mm | - | - | - |
| 1778078311 | 20.56° C | 53% | 0 hPa | 0 mm | - | - | - |
| 1778078011 | 20° C | 54% | 0 hPa | 0 mm | - | - | - |
* Rain latest hour (hover to see other rain measurements)
** Current wind speed in m/s (hover to see current wind gust speed)